CAPE
0 0 0 0 0 0 0 0 0 0 0 0 0 0 0 1413 1129 535 1138 1706 1694 1472 2178 2482 2258 2148 2049 1886 1837 1546 1275 1384 1434 1322 1276 1371 1505 1540 1415 1384 1371 1416 1105 397 346 293 253 286 290
0 0 0 0 0 0 0 0 0 0 2 0 0 0 3 1332 1489 849 1766 1962 1405 1540 1785 2195 2432 2053 1976 1860 1728 1430 1268 1391 1370 1300 1309 1406 1522 1562 1517 1454 1312 1158 535 224 188 216 244 234 210
0 0 0 0 0 0 0 0 0 0 1 0 0 0 68 1411 1295 1237 1661 1897 1541 1169 1496 2042 2514 2167 2012 1936 1658 1381 1260 1346 1342 1340 1308 1385 1500 1525 1521 1414 1277 1078 319 192 238 290 603 596 447
0 0 0 0 0 0 0 0 0 0 0 0 0 0 39 1469 1979 1938 1849 2026 1329 1285 1580 2294 2434 2292 2079 1942 1677 1441 1344 1381 1348 1376 1340 1356 1478 1467 1509 1473 1211 936 677 480 455 753 767 720 763
0 0 0 0 0 0 0 0 0 0 0 12 0 48 999 2418 1828 1694 1647 1771 1327 1497 1733 2185 2405 2355 2230 2023 1731 1519 1433 1345 1318 1375 1380 1397 1429 1459 1511 1450 1162 854 710 745 675 754 708 645 658
0 0 0 0 0 0 0 0 0 0 0 0 0 0 1270 1661 1373 1224 1537 1471 1305 1799 1688 1945 2460 2383 2175 1992 1725 1523 1435 1330 1333 1352 1427 1444 1349 1365 1421 1351 1070 763 714 837 955 822 622 397 315
0 0 0 0 0 0 0 0 0 0 0 0 0 0 1522 605 333 5 0 0 1593 1790 1422 1628 2112 2281 2241 1932 1708 1604 1467 1334 1340 1334 1416 1453 1355 1335 1338 1207 1054 786 645 733 868 826 656 444 330
0 0 0 0 0 0 0 0 0 0 0 0 0 0 1832 1282 178 0 0 0 410 1588 1206 1488 1748 1924 1917 1807 1876 1698 1530 1428 1379 1437 1491 1456 1382 1362 1305 1003 1075 951 656 646 707 768 680 501 373
0 0 0 0 0 0 0 0 0 0 0 0 0 0 1451 1144 226 201 42 0 385 1161 939 1012 1424 1546 1459 1483 1677 1651 1721 1630 1486 1509 1509 1224 963 1087 1053 810 1041 1071 824 620 579 623 587 532 520
0 0 0 0 0 0 0 0 0 0 0 0 0 14 741 773 373 12 1 6 0 437 892 759 953 1055 928 1325 1162 1299 1387 1351 1214 1171 1163 732 413 592 628 579 891 1030 875 674 549 457 403 376 2
0 0 0 0 0 0 0 0 0 0 0 0 0 0 143 85 299 90 7 0 0 0 487 381 487 456 304 931 914 919 991 923 819 779 800 468 302 390 452 200 391 427 645 277 332 223 123 11 0
0 0 0 0 0 0 0 0 0 0 0 0 0 0 0 2 14 56 42 10 770 616 283 63 0 0 0 613 489 524 538 330 253 304 543 298 215 179 162 308 165 186 135 105 25 33 8 0 0
0 0 0 0 0 0 0 0 0 0 0 0 0 0 0 0 12 9 9 746 780 451 371 2 0 0 52 271 155 259 295 245 202 238 513 222 137 422 281 280 94 178 144 117 33 36 28 26 4
0 0 0 0 0 0 0 0 0 0 0 0 0 0 0 0 0 0 11 618 430 635 586 2 0 12 0 0 138 344 345 296 301 309 706 606 408 680 494 351 383 326 302 246 100 88 63 121 167
0 0 0 0 0 0 0 0 0 0 0 0 0 0 0 0 0 0 0 862 209 305 84 3 0 0 0 0 5 1149 1074 319 450 529 726 988 929 1235 1141 1233 1053 802 759 606 511 981 1308 840 177
0 0 0 0 0 0 0 0 0 0 0 0 0 0 0 0 0 0 0 1009 308 0 0 2 0 0 0 0 0 730 479 308 92 22 484 399 529 85 885 309 41 93 666 492 300 484 918 722 186
0 0 0 0 0 0 0 0 0 0 0 0 0 0 0 0 0 0 0 681 356 0 0 5 0 0 0 0 0 239 413 5 7 0 28 89 127 2 1 9 0 9 1 1 8 0 100 430 385
0 0 0 0 0 0 0 0 0 0 0 0 0 0 0 0 0 0 0 0 225 246 114 0 27 0 0 0 0 0 0 19 0 0 0 4 241 1 0 1 1 0 2 0 0 0 7 917 356
0 0 0 0 0 0 0 0 0 0 0 0 0 0 0 0 0 0 0 34 653 473 162 0 4 26 0 0 0 0 0 0 29 0 141 78 0 58 0 0 0 0 25 0 103 58 176 0 0
0 0 0 0 0 0 0 0 0 0 0 0 0 0 0 0 0 0 19 175 1154 905 196 105 76 228 37 22 43 17 0 16 886 0 0 0 0 48 0 0 0 0 554 272 219 179 47 12 23
0 0 0 0 0 0 0 0 0 0 0 0 0 0 0 0 0 0 160 614 909 1306 1828 1485 1310 666 241 621 999 1072 825 1224 1237 568 51 56 74 487 197 21 145 25 36 1 107 79 135 38 45
0 0 0 0 0 0 1 0 0 0 0 0 0 0 0 0 0 0 249 450 1569 1550 2378 2594 2409 1706 1728 2009 1474 1513 1340 1110 1220 1095 928 268 517 752 93 29 18 63 64 53 157 140 224 103 27
0 0 0 0 0 0 0 0 0 0 0 0 0 0 0 0 0 0 28 453 1459 1151 1432 1888 2407 2346 2201 2070 1792 1484 1282 411 287 422 161 22 0 8 25 55 98 145 147 147 110 76 71 74 74
0 0 0 0 0 0 0 0 0 0 0 0 0 0 0 0 0 0 32 166 897 450 1084 1266 721 444 428 699 481 478 449 371 371 201 167 258 306 156 57 125 112 135 134 123 145 75 26 26 23
0 0 0 0 0 0 0 0 0 0 1 0 0 0 0 0 0 1 56 135 1147 856 580 509 168 93 45 66 48 18 95 43 36 70 43 14 11 35 0 0 0 0 2 2 1 0 0 0 0
0 0 0 0 0 0 0 0 0 0 0 0 0 0 18 15 44 84 193 1060 776 431 257 94 1 1 12 22 2 1 0 0 0 0 0 0 0 0 0 0 0 0 0 0 0 0 0 0 0
0 0 0 0 2 0 0 0 41 26 22 3 3 3 48 13 41 227 733 548 330 250 75 32 13 5 5 0 0 0 0 0 0 0 0 0 0 0 0 0 0 0 0 0 0 0 0 0 0
0 0 0 0 0 0 6 27 66 50 7 14 0 38 260 243 281 358 248 159 53 9 0 0 0 0 0 0 0 0 0 0 0 0 0 0 0 0 0 0 0 0 0 0 0 0 0 0 0
0 0 0 0 0 0 0 66 42 9 0 8 17 2 125 198 104 21 0 0 0 0 0 0 0 0 0 0 0 0 0 0 0 0 0 0 0 0 0 0 0 0 0 0 0 0 0 0 0
0 0 0 8 29 20 0 112 3 0 0 0 0 1 1 0 22 9 0 0 0 0 0 0 0 0 0 0 0 0 0 0 0 0 0 0 0 0 0 0 0 0 0 0 0 0 0 3 4
CIN
0 0 0 0 0 0 0 0 0 0 0 0 0 0 0 -60 -58 -95 -422 -395 -454 -490 -339 -198 -243 -237 -233 -212 -172 -193 -216 -165 -134 -121 -99 -64 -21 -3 -4 -1 0 0 -4 -173 -210 -236 -231 -162 -136
0 0 0 0 0 0 0 0 0 0 -20 0 0 0 -11 -70 -126 -287 -336 -406 -508 -502 -412 -249 -177 -239 -225 -205 -199 -225 -224 -185 -161 -126 -96 -54 -20 -4 -1 -1 -2 -5 -96 -288 -317 -266 -214 -196 -192
0 0 0 0 0 0 0 0 0 0 -14 0 0 0 -23 -59 -114 -228 -347 -388 -471 -546 -454 -277 -169 -232 -238 -215 -216 -238 -237 -197 -164 -126 -101 -61 -25 -13 -11 -8 -11 -22 -202 -291 -235 -182 -81 -82 -111
0 0 0 0 0 0 0 0 0 0 0 0 0 0 -36 -46 -81 -218 -356 -406 -493 -489 -398 -251 -179 -202 -219 -224 -242 -259 -230 -188 -175 -138 -102 -68 -22 -7 -2 -3 -16 -45 -99 -144 -150 -80 -70 -74 -71
0 0 0 0 0 0 0 0 0 0 -2 -12 0 -8 -37 -91 -121 -232 -321 -379 -440 -399 -351 -286 -219 -219 -205 -197 -201 -222 -220 -198 -150 -119 -97 -62 -29 -14 -10 -7 -34 -79 -99 -95 -106 -97 -100 -103 -105
0 0 0 0 0 0 0 0 0 0 0 0 0 0 -54 -111 -167 -119 -146 -249 -303 -370 -367 -287 -199 -224 -217 -197 -185 -168 -161 -174 -151 -112 -80 -56 -43 -22 -16 -16 -47 -115 -122 -76 -66 -86 -124 -162 -184
0 0 0 0 0 0 0 0 0 0 0 0 0 0 -102 -368 -549 -455 0 0 -250 -293 -355 -309 -235 -217 -179 -182 -198 -172 -176 -202 -174 -141 -93 -73 -70 -65 -46 -42 -46 -113 -137 -118 -75 -89 -114 -143 -161
0 0 0 0 0 0 0 0 0 0 0 0 0 0 -60 -306 -493 0 0 0 -493 -232 -414 -310 -235 -168 -167 -194 -186 -184 -169 -168 -171 -143 -112 -78 -56 -44 -46 -94 -70 -73 -144 -129 -98 -97 -112 -140 -169
0 0 0 0 0 0 0 0 0 0 0 0 0 0 -137 -358 -434 -320 -547 0 -391 -377 -399 -403 -253 -199 -161 -125 -94 -105 -90 -105 -131 -117 -100 -123 -168 -116 -80 -117 -67 -56 -119 -153 -163 -120 -121 -138 -151
0 0 0 0 0 0 0 0 0 0 0 0 0 -54 -300 -357 -295 -342 -66 -346 0 -401 -492 -393 -324 -207 -191 -98 -114 -93 -93 -111 -138 -130 -108 -197 -291 -221 -206 -213 -101 -64 -94 -141 -159 -159 -161 -166 -55
0 0 0 0 0 0 0 0 0 0 0 0 0 0 -299 -334 -342 -228 -266 0 0 0 -118 -320 -307 -303 -242 -90 -113 -115 -85 -100 -131 -158 -144 -269 -331 -279 -235 -336 -239 -212 -103 -220 -201 -247 -305 -435 0
0 0 0 0 0 0 0 0 0 0 0 0 0 0 0 -240 -368 -390 -327 -57 -294 -164 -195 -494 0 0 0 -123 -153 -156 -161 -253 -326 -338 -270 -369 -378 -367 -361 -281 -344 -323 -321 -361 -455 -446 -329 0 0
0 0 0 0 0 0 0 0 0 0 0 0 0 0 0 0 -175 -210 -114 -294 -303 -59 -109 -1 0 0 -306 -163 -146 -147 -186 -287 -325 -316 -230 -346 -382 -242 -283 -286 -335 -306 -311 -346 -388 -369 -355 -273 -126
0 0 0 0 0 0 0 0 0 0 0 0 0 0 0 0 0 0 -61 -323 -303 -289 -240 0 0 -21 -21 0 -152 -110 -130 -197 -208 -209 -111 -127 -162 -114 -114 -105 -117 -111 -142 -170 -223 -212 -233 -182 -134
0 0 0 0 0 0 0 0 0 0 0 0 0 0 0 0 0 0 0 -262 -407 -247 -313 -458 0 0 0 -31 -193 -34 -40 -170 -144 -101 -101 -79 -87 -71 -32 -51 -42 -61 -66 -70 -91 -56 -56 -127 -229
0 0 0 0 0 0 0 0 0 0 0 0 0 0 0 0 0 0 0 -197 -415 0 0 -457 0 0 0 0 -47 -279 -114 -314 -488 -440 -204 -207 -154 -185 -88 -72 -182 -153 -43 -69 -75 -106 -100 -123 -157
0 0 0 0 0 0 0 0 0 0 0 0 0 0 0 0 0 0 0 -197 -322 0 0 -197 0 0 0 0 0 -213 -159 -376 -320 0 -243 -253 -208 -92 -181 -281 0 0 0 0 0 0 -11 -63 -60
0 0 0 0 0 0 0 0 0 0 0 0 0 0 0 0 0 0 0 0 -311 -363 -398 0 -388 0 0 0 0 0 0 -260 0 0 0 -280 -257 -116 0 -14 -48 0 -251 0 0 0 -130 -10 -74
0 0 0 0 0 0 0 0 0 0 0 0 0 0 0 0 0 0 0 -314 -239 -296 -408 -1 -533 -377 0 0 0 0 0 0 -319 0 -260 -307 -2 -279 0 0 0 0 -227 0 -235 -224 -100 0 0
0 0 0 0 0 0 0 0 0 0 0 0 0 0 0 0 0 0 -212 -231 -133 -228 -364 -411 -378 -274 -434 -443 -464 -536 -123 -100 -86 0 0 0 -49 -247 0 0 0 0 -88 -125 -108 -95 -183 -242 -242
0 0 0 0 0 0 0 0 0 0 0 0 0 0 0 0 0 0 -109 -142 -145 -104 -88 -151 -161 -264 -312 -204 -120 -106 -133 -84 -66 -202 -410 -448 -334 -172 -230 -254 -101 -64 -89 -37 -163 -200 -173 -213 -265
0 0 0 0 0 0 -21 0 0 0 0 0 0 0 0 0 0 0 -140 -151 -102 -98 -70 -50 -39 -73 -72 -55 -59 -84 -99 -71 -109 -117 -113 -188 -125 -67 -215 -262 -256 -210 -245 -247 -205 -207 -141 -195 -182
0 0 0 0 0 0 0 0 0 0 0 0 0 0 0 0 0 0 -146 -156 -116 -183 -165 -128 -71 -56 -34 -24 -61 -102 -98 -217 -210 -190 -242 -277 -18 -226 -223 -231 -245 -241 -268 -259 -262 -272 -244 -228 -165
0 0 0 0 0 0 0 0 0 0 0 0 0 0 0 0 0 0 -134 -199 -183 -210 -183 -209 -237 -277 -315 -236 -305 -287 -264 -272 -175 -209 -220 -228 -212 -250 -355 -304 -317 -287 -254 -240 -223 -290 -327 -279 -154
0 0 0 0 0 0 0 0 0 0 -6 0 0 0 0 -10 0 -42 -190 -227 -186 -249 -279 -263 -411 -450 -514 -524 -535 -570 -480 -543 -560 -489 -452 -439 -429 -374 -189 0 0 0 -309 -302 -196 0 0 0 0
0 0 0 0 0 0 0 0 0 0 0 -25 0 0 -157 -174 -175 -249 -255 -247 -268 -346 -429 -489 -55 -78 -604 -570 -439 -81 -79 0 0 0 0 0 0 0 0 0 0 0 0 0 0 0 0 0 0
0 0 0 0 -11 -1 0 0 -31 -81 -109 -47 -44 -35 -178 -231 -229 -241 -213 -288 -359 -428 -490 -518 -561 -515 -598 0 0 0 0 0 0 0 0 0 0 0 0 0 0 0 0 0 0 0 0 0 0
0 0 0 0 0 0 -18 -17 -88 -152 -111 -143 0 -61 -189 -220 -230 -274 -315 -384 -450 -305 0 0 0 0 0 0 0 0 0 0 0 0 0 0 0 0 0 0 0 0 0 0 0 0 0 0 0
0 0 0 0 0 0 0 -95 -244 -111 -64 -212 -308 -267 -232 -187 -288 -273 0 0 0 0 0 0 0 0 0 0 0 0 0 0 0 0 0 0 0 0 0 0 0 0 0 0 0 0 0 0 0
-13 0 0 -40 -22 -17 -2 -80 -12 -9 -3 0 0 -22 -21 0 -305 -422 0 0 0 0 0 0 0 0 0 0 0 0 0 0 0 0 0 0 0 0 0 0 0 0 0 0 0 0 0 -22 -26
Wind_Speed
4 7 3 3 3 2 6 11 10 19 9 3 5 5 2 4 5 6 4 21 23 17 15 14 19 20 21 21 19 18 17 16 17 17 17 16 15 14 14 13 13 13 13 14 14 14 14 12 10
3 5 2 3 3 2 7 15 19 18 3 6 5 2 4 13 11 11 9 15 22 17 14 11 17 19 20 20 19 19 18 17 17 17 17 16 15 15 14 13 12 12 13 14 14 14 14 12 10
2 5 2 5 4 8 7 19 17 10 4 7 2 2 4 8 20 14 19 19 17 16 13 12 17 19 20 20 19 18 18 18 17 17 17 17 16 15 15 14 13 13 14 15 14 14 12 11 10
3 1 4 2 9 13 17 23 14 19 11 2 1 3 5 8 8 16 24 21 18 14 13 15 16 17 18 19 20 20 19 18 18 18 17 16 15 14 13 13 12 12 12 14 14 12 11 10 8
2 3 3 5 10 15 16 20 14 16 9 5 1 2 5 7 17 25 24 20 19 15 11 13 16 17 17 18 17 18 19 18 16 16 16 15 14 13 13 12 12 12 11 12 12 12 11 10 9
3 3 1 10 10 14 19 22 20 12 12 5 6 3 3 13 14 13 14 15 15 14 11 10 15 16 17 18 17 15 16 16 16 15 15 15 13 11 11 10 10 10 11 11 11 10 10 10 9
4 2 6 9 11 15 20 18 18 16 8 6 3 4 5 17 11 13 13 13 7 16 11 8 8 12 16 17 17 15 15 17 16 15 13 14 13 13 12 10 9 9 9 10 10 9 9 8 7
4 3 8 10 14 18 16 17 12 12 17 6 4 3 5 6 8 12 11 9 9 10 16 10 6 5 7 9 18 17 15 14 16 15 15 13 12 12 12 12 11 10 10 9 9 9 8 8 8
6 9 12 16 16 10 13 7 8 11 15 3 6 4 11 15 12 10 3 4 2 12 16 17 12 8 6 5 9 13 15 13 13 13 13 10 5 7 9 9 11 11 11 11 10 10 9 9 9
9 9 19 9 11 13 14 12 7 3 7 3 0 6 12 13 15 14 13 16 15 16 21 17 16 11 9 9 9 5 7 5 5 5 5 3 4 5 9 9 12 12 11 10 10 10 9 8 4
7 20 8 13 20 20 20 18 7 6 6 4 6 6 12 8 9 15 16 12 9 9 5 13 12 13 8 7 4 3 2 3 2 5 5 4 5 4 5 4 5 4 9 4 6 6 5 7 5
14 19 16 18 17 13 11 9 10 3 6 8 7 5 5 10 12 14 12 10 9 10 5 16 14 10 9 7 5 4 3 3 4 5 8 5 3 5 5 4 5 6 5 7 7 5 7 7 8
20 15 17 19 18 16 13 8 9 9 7 9 10 9 8 5 10 11 13 12 15 15 16 10 11 8 11 8 2 5 7 7 7 6 8 6 6 5 7 6 6 6 5 7 7 7 6 7 7
7 17 19 13 16 16 9 9 5 6 6 9 9 9 8 4 3 9 8 16 13 18 22 19 14 8 10 3 12 4 8 9 8 8 9 11 7 5 4 4 5 5 6 6 6 6 4 5 3
15 17 15 21 12 11 10 11 16 7 8 9 11 10 9 8 6 2 8 8 15 13 19 16 17 16 12 20 12 8 6 8 3 5 9 12 9 4 4 4 5 4 5 6 5 4 2 5 3
13 17 16 9 11 9 9 20 9 9 10 12 11 9 13 12 6 3 4 7 12 12 12 13 11 16 12 12 8 7 3 3 3 5 4 7 11 12 6 8 11 13 12 12 12 7 2 2 3
8 10 11 11 8 8 14 19 11 11 10 16 15 14 10 10 9 5 5 8 10 16 15 16 14 13 3 7 5 4 8 4 6 7 2 2 7 7 10 8 9 10 3 10 7 14 12 9 6
9 9 15 12 17 16 15 16 17 12 13 15 10 15 11 10 10 7 9 8 12 12 11 8 8 9 8 5 3 2 5 4 3 1 2 3 5 6 6 6 6 4 9 4 7 4 9 5 2
14 16 15 10 17 17 20 19 18 14 9 9 8 9 11 11 9 10 7 10 13 11 11 12 10 10 7 2 2 1 2 3 3 3 4 5 3 10 6 3 6 6 6 3 8 6 8 3 2
20 20 18 15 17 15 16 12 9 9 10 11 12 10 11 7 7 9 11 8 11 16 13 13 9 12 7 4 2 3 5 4 5 6 4 5 4 8 4 2 6 8 5 4 7 7 2 1 1
21 21 16 14 17 16 8 5 6 6 6 8 11 9 8 11 11 9 14 12 12 16 19 19 18 16 13 11 6 4 5 1 3 6 8 8 11 11 8 8 7 5 5 3 1 3 4 2 3
20 20 21 19 15 5 7 4 6 8 11 9 8 9 9 8 9 8 17 14 14 14 14 17 19 17 15 14 11 14 10 6 4 2 4 5 6 8 8 8 7 6 3 3 3 3 1 2 3
18 17 20 19 9 3 8 5 7 6 14 19 10 9 9 10 10 10 20 18 18 13 12 11 9 7 3 3 3 5 4 3 3 4 7 6 5 7 6 6 5 4 4 3 3 4 5 2 2
19 16 15 9 2 4 6 6 8 3 8 10 10 10 10 9 10 11 17 17 15 10 9 9 12 8 7 6 7 7 8 10 8 5 4 4 1 3 6 5 5 5 4 2 2 2 2 3 3
20 11 5 3 6 5 8 5 8 6 2 9 9 9 9 6 8 9 17 14 15 15 16 12 13 10 9 9 8 8 10 9 9 8 6 5 3 3 5 4 4 4 3 4 3 2 4 3 3
16 10 6 7 5 5 7 8 14 9 6 9 2 10 11 13 16 14 13 17 18 16 15 14 13 11 9 8 8 8 9 6 5 6 4 4 3 2 3 5 4 3 4 3 4 3 4 4 4
9 11 9 7 3 4 4 7 3 5 10 8 8 9 9 12 15 17 16 16 15 14 13 12 10 9 8 8 7 7 7 8 6 6 5 3 4 3 4 4 3 3 4 4 5 4 5 4 4
11 7 7 4 7 3 6 3 2 10 10 12 21 7 12 13 17 19 16 15 12 13 13 11 9 9 7 8 7 5 6 6 6 6 4 3 1 1 1 2 3 5 5 5 6 4 4 6 4
8 8 6 6 7 8 3 3 4 2 6 8 11 20 9 12 18 20 17 16 15 12 11 8 8 8 7 7 6 7 6 6 5 4 4 4 3 4 3 3 4 6 7 6 5 5 6 7 6
12 9 7 6 4 3 7 4 3 5 2 10 7 13 21 26 16 18 18 13 10 9 8 7 6 7 7 6 6 5 6 6 5 4 3 3 2 3 4 4 5 5 5 5 6 7 6 8 6
Wind_Direction
291 269 231 319 28 143 257 257 262 283 289 105 62 41 9 31 99 184 303 136 132 144 143 159 152 148 145 144 145 142 141 139 133 128 128 128 124 120 120 121 121 121 124 122 118 117 113 109 104
307 293 220 263 160 253 257 254 260 257 203 93 43 299 20 93 96 125 123 133 137 139 136 152 159 150 147 147 148 146 146 143 138 135 135 134 132 131 130 130 130 130 131 129 126 124 123 124 123
264 234 99 166 199 219 241 255 264 306 26 12 354 299 101 112 131 150 133 139 132 135 132 157 164 156 153 151 152 150 149 148 145 144 144 143 143 143 142 142 143 143 140 136 133 132 133 134 134
241 334 299 193 236 233 231 266 277 283 299 142 255 302 73 117 132 139 139 135 133 139 145 157 161 158 157 156 157 155 153 153 152 150 148 148 150 150 149 149 150 151 148 145 142 141 141 142 144
230 273 220 218 245 261 263 260 271 275 281 258 240 359 71 74 114 131 136 139 141 146 150 155 162 159 160 159 160 159 155 153 153 151 150 153 155 157 157 157 156 156 155 152 149 150 153 158 166
280 167 250 223 249 245 251 262 268 274 291 317 7 337 74 88 67 89 108 124 138 126 138 158 165 160 160 159 157 157 153 152 153 153 155 155 158 161 163 163 158 157 160 162 161 162 164 173 179
221 245 229 252 253 248 246 249 257 262 249 242 245 283 86 58 86 82 79 55 125 137 137 155 167 165 160 155 154 156 160 155 153 155 159 160 163 163 165 166 166 165 168 170 172 172 177 184 193
219 244 258 243 247 262 264 275 258 252 263 219 136 255 147 181 119 76 54 63 69 150 145 146 149 145 155 162 156 154 160 159 155 160 162 166 170 170 171 172 175 178 176 180 185 187 190 196 206
235 237 239 242 245 257 274 270 264 302 238 153 162 216 148 156 117 95 170 69 148 179 167 154 149 159 147 141 156 150 157 162 164 162 164 161 164 172 182 185 188 187 185 188 188 200 204 207 219
200 223 232 250 262 260 271 283 296 328 222 154 92 76 136 153 139 138 154 179 207 189 169 157 151 156 151 155 155 135 164 155 152 146 153 161 180 190 190 197 200 197 201 198 199 205 214 220 224
244 235 242 232 252 263 273 288 284 17 331 174 202 194 155 167 168 174 190 201 25 326 202 154 156 150 141 120 132 130 135 135 133 142 160 204 206 205 218 209 200 189 210 205 211 219 212 208 212
238 238 237 251 259 277 280 308 310 312 245 296 325 345 331 159 174 190 199 110 109 60 31 84 61 43 23 129 158 154 143 157 170 187 177 189 212 205 203 189 196 192 204 208 208 204 215 217 216
235 242 235 236 250 256 269 267 261 283 298 315 321 334 319 354 188 192 178 158 133 138 120 69 81 36 45 35 169 169 185 182 189 181 180 193 212 210 200 195 192 204 209 211 221 217 217 215 220
242 236 246 235 227 249 247 263 267 265 286 300 306 302 298 303 348 310 140 147 155 145 131 122 128 154 130 79 307 265 202 194 188 185 189 200 206 218 197 188 200 224 218 222 227 226 226 234 224
243 253 257 238 233 236 251 267 239 261 269 257 264 280 280 276 300 335 314 126 136 136 143 157 137 157 130 117 243 276 269 186 154 217 188 199 206 180 232 208 215 222 225 228 233 210 149 114 117
235 246 248 253 218 227 182 254 245 224 233 239 240 244 254 268 235 262 345 123 111 123 141 157 161 163 155 153 179 137 286 104 89 35 12 62 54 29 2 27 37 357 1 11 3 354 26 57 95
246 239 246 250 244 208 200 248 237 227 233 231 231 229 225 234 257 226 272 160 135 137 152 157 150 156 132 88 81 181 126 55 54 63 9 41 64 55 35 31 347 356 5 63 7 358 333 7 294
237 222 241 241 228 239 242 235 231 226 233 237 221 215 215 217 218 205 223 150 140 135 137 131 147 139 117 105 167 71 89 98 73 164 222 162 115 80 97 106 245 238 263 129 101 231 260 248 289
251 241 222 231 239 226 234 231 216 216 222 235 245 206 199 208 202 184 163 142 137 127 129 136 133 146 144 111 111 57 127 71 165 211 177 129 96 159 161 153 176 189 229 223 182 211 218 240 331
241 246 254 262 244 216 241 206 198 202 214 213 227 216 197 187 170 186 141 142 143 146 145 142 158 169 170 169 180 155 139 184 191 154 192 174 165 191 229 141 201 203 232 212 192 190 202 39 33
231 241 248 249 267 252 158 206 197 231 237 232 222 190 175 185 181 183 147 155 138 142 151 164 175 171 176 189 194 183 188 120 131 168 189 198 195 189 182 198 221 200 160 204 216 77 115 205 277
233 230 244 255 265 268 129 238 229 232 243 245 202 156 171 173 175 178 152 151 150 156 146 151 160 168 184 178 171 170 173 172 180 156 119 138 184 167 151 158 169 159 147 74 37 62 99 125 272
232 232 228 241 250 210 285 126 258 262 261 223 192 173 183 207 188 172 157 155 159 149 146 137 136 119 163 137 140 137 112 123 100 92 113 129 159 141 126 116 105 88 62 60 11 349 337 309 246
236 233 246 230 169 260 234 141 273 256 232 189 171 173 190 207 192 165 161 150 152 116 88 83 93 81 66 96 104 100 123 122 112 103 89 53 6 70 67 73 89 100 97 57 17 1 333 311 294
220 224 216 219 223 205 205 263 219 239 176 103 182 185 192 119 148 132 128 110 100 100 97 97 88 73 62 58 61 86 90 82 87 100 105 86 64 46 54 54 45 36 19 359 336 335 309 290 293
217 185 146 179 173 214 229 221 234 208 196 115 119 169 122 105 101 94 105 106 107 102 101 98 95 92 84 76 69 59 51 70 84 94 94 101 110 115 68 57 47 25 11 339 314 302 277 278 281
196 202 183 126 24 60 261 246 32 101 42 49 101 105 114 113 107 111 108 104 103 102 99 99 96 93 93 99 91 79 85 93 96 78 70 43 46 28 21 14 356 315 281 265 251 239 257 271 266
187 179 186 198 142 161 266 174 105 356 51 29 25 100 117 113 99 97 94 88 85 90 95 90 95 104 107 89 97 92 88 82 72 67 69 79 103 104 318 305 308 295 295 287 269 272 271 259 261
221 194 186 140 139 170 199 233 210 5 41 63 39 48 28 115 100 98 91 88 87 83 88 95 100 107 99 94 87 77 64 60 59 54 32 24 10 347 322 277 263 256 256 263 274 259 251 258 251
316 175 228 126 213 206 154 211 355 273 99 73 54 57 39 350 106 103 104 103 99 95 81 83 84 82 79 90 81 73 64 52 39 24 10 358 326 303 284 297 288 285 280 282 280 266 265 256 262